Location: St. Louis
(38.6270°N, 90.1994°W)
Time: 01:53:36
(UTC-06:00)

Vanguard 2 - Pass Details

Date: 02 December 2021
Orbit: 553 x 2936 km, 32.9° (Epoch: 16 January)

Event Time Altitude Azimuth Distance (km) Brightness Sun altitude
Rises 17:42:44 0° 272° (W) 3,882 12.6 -12.1°
Reaches altitude 10° 17:45:07 10° 265° (W) 3,174 12.0 -12.6°
Maximum altitude 17:52:52 46° 195° (SSW) 2,179 10.0 -14.0°
Drops below altitude 10° 18:05:19 10° 129° (SE) 5,018 11.3 -16.4°
Sets 18:10:11 0° 124° (SE) 6,329 11.8 -17.3°
